Flag for U.S.A. Weather past 2 weeks in San Bernardino, California, U.S.A.

Now
68 °F

Clear.


Feels Like: 68 °F
Forecast: 69 / 99 °F
Wind: No wind

Location: Riverside Municipal Airport

Current Time: Aug 1, 2014 at 6:43:56 AM

Latest Report: Aug 1, 2014 at 5:53 AM


Visibility: 10 mi

Pressure: 29.87 "Hg

Humidity: 82%

Dew point: 62 °F

Location of San BernardinoLocation

Historic Weather in San Bernardino — Graph

°F

San Bernardino temperature yesterday

Maximum temperature yesterday: 98 °F (at 2:53 PM)
Minimum temperature yesterday: 71 °F (at 5:53 AM)
Average temperature yesterday: 83 °F

Past Weeks' High & Low Weather Summary

 TemperatureHumidityPressure
High105 °F (Jul 24, 2:53 PM)87% (Jul 21, 5:53 AM)30.03 "Hg (Jul 21, 5:53 AM)
Low61 °F (Jul 18, 5:53 AM)10% (Jul 24, 12:53 PM)29.68 "Hg (Jul 24, 5:53 PM)
Average78 °F50%29.91 "Hg
* Reported Jul 17 4:53 AM — Aug 1 4:53 AM, San Bernardino, Weather by CustomWeather, © 2014

Note: Actual official high and low records may vary slightly from our data, if they occured in-between our weather recording intervals... More about our weather records

Advertising

San Bernardino weather history for previous 24 hours

 ConditionsComfort  
Time TempWeatherWind HumidityBarometerVisibility
4:53 AM
Aug 1
70 °FClear.3 mph73%29.87 "Hg10 mi
3:53 AM71 °FClear.No wind71%29.86 "Hg10 mi
2:53 AM71 °FClear.No wind68%29.86 "Hg10 mi
1:53 AM71 °FClear.3 mph71%29.87 "Hg10 mi
12:53 AM72 °FClear.5 mph68%29.88 "Hg10 mi
11:53 PM
Jul 31
74 °FClear.6 mph67%29.88 "Hg10 mi
10:53 PM77 °FClear.6 mph58%29.87 "Hg10 mi
9:53 PM79 °FClear.5 mph52%29.85 "Hg10 mi
8:53 PM82 °FClear.5 mph48%29.83 "Hg10 mi
7:53 PM87 °FSunny.5 mph40%29.81 "Hg10 mi
6:53 PM91 °FSunny.10 mph34%29.79 "Hg10 mi
5:53 PM93 °FSunny.12 mph31%29.78 "Hg10 mi
4:53 PM96 °FSunny.10 mph28%29.78 "Hg10 mi
3:53 PM97 °FSunny.13 mph26%29.79 "Hg10 mi
2:53 PM98 °FSunny.13 mph25%29.81 "Hg10 mi
1:53 PM97 °FSunny.7 mph27%29.83 "Hg10 mi
12:53 PM94 °FSunny.7 mph32%29.85 "Hg10 mi
11:53 AM91 °FSunny.6 mph31%29.87 "Hg9 mi
10:53 AM87 °FSunny.5 mph36%29.88 "Hg10 mi
9:53 AM82 °FSunny.No wind43%29.88 "Hg10 mi
8:53 AM78 °FSunny.3 mph50%29.89 "Hg10 mi
7:53 AM75 °FSunny.No wind62%29.90 "Hg10 mi
6:53 AM72 °FClear.No wind66%29.88 "Hg10 mi
Weather by CustomWeather, © 2014

See weather overviewHow to use our weather pages